Theta_e
308 309 309 309 310 310 311 312 312 313 314 314 314 313 313 313 314 315 315 317 318 319 319 320 320 320 320 320 320 320 321 321 322 323 323 324 324 325 324 325 325 326 326 326 326 327 327 327 327 327 327 327 327 327 328 327 328 330 332 333 333 334 334 334 333 330 328 327 328 328 327 327 328 329 328 326 324 323 323 323 324 326 326 325 325 325
303 304 304 305 306 307 308 309 310 311 312 313 313 313 313 314 314 314 314 315 316 318 319 320 320 320 320 320 319 319 318 318 319 320 321 323 324 324 324 324 324 325 325 326 326 326 327 327 327 327 327 327 326 326 327 327 328 329 331 333 334 334 334 334 333 330 327 328 328 329 328 327 327 328 328 326 325 323 323 323 324 325 327 326 325 325
299 300 300 301 302 303 305 306 307 308 310 311 312 313 313 314 314 314 314 314 315 316 317 319 320 320 320 320 319 319 318 317 317 318 319 320 322 323 324 324 324 324 325 325 325 326 326 326 327 327 327 326 326 326 327 327 327 328 329 332 334 334 334 334 332 329 327 328 329 329 328 327 328 328 328 327 325 324 323 323 324 325 327 327 326 326
296 296 297 297 298 299 301 302 304 306 307 309 311 312 312 313 313 314 314 314 314 315 316 317 318 319 319 320 320 319 319 318 318 317 318 319 320 321 322 323 323 324 324 325 325 325 325 326 327 327 327 326 326 326 327 327 327 327 328 331 333 334 334 334 332 330 328 328 329 329 329 328 328 328 328 327 326 324 324 324 325 326 327 327 326 326
295 295 295 295 296 297 298 299 301 302 304 306 308 309 310 311 312 313 313 313 314 314 314 315 316 317 318 319 320 320 320 319 319 318 318 318 318 319 320 321 322 323 324 324 325 325 325 325 326 327 327 326 326 326 327 328 328 327 327 329 331 333 333 334 333 330 328 327 328 328 328 328 328 328 328 327 326 326 325 325 326 327 328 327 326 326
295 295 295 295 295 296 296 297 298 299 301 302 304 305 307 308 309 310 311 312 313 313 314 314 315 316 317 318 318 319 320 320 320 319 319 318 318 318 318 319 320 322 323 324 324 325 325 325 325 326 327 326 326 326 327 328 328 328 327 328 329 331 333 333 333 331 328 327 328 328 328 328 328 328 327 327 327 326 327 327 328 328 328 326 325 325
294 294 295 295 295 295 296 296 297 298 299 300 302 303 304 305 307 308 310 311 312 313 313 314 314 315 315 316 317 318 319 320 320 320 319 319 318 318 318 318 319 320 321 322 323 324 324 325 325 326 326 326 326 326 326 327 328 328 327 327 327 329 331 333 333 332 328 328 328 328 328 328 328 328 327 326 326 327 327 328 329 329 328 325 324 325
294 294 294 295 295 295 295 296 297 297 298 299 300 301 302 303 305 306 308 309 311 312 313 314 314 314 315 315 316 317 318 319 319 320 320 320 319 319 319 319 319 319 320 321 322 323 324 324 325 325 326 326 326 326 326 327 328 328 327 327 327 327 329 332 333 332 330 328 328 329 329 329 329 328 328 327 327 327 328 328 329 328 328 325 324 324
294 294 294 295 295 295 295 296 296 297 298 299 299 300 301 302 303 305 306 308 309 311 313 314 314 314 315 315 316 316 317 318 319 319 319 319 320 320 320 320 320 320 320 320 321 322 323 323 324 325 326 326 326 326 326 327 327 328 327 327 326 326 326 329 332 333 331 329 329 329 329 329 329 329 328 328 328 328 328 328 328 328 328 326 325 325
295 295 295 295 295 295 296 296 296 297 297 298 299 300 300 301 302 303 305 306 307 309 311 312 313 314 314 315 315 316 316 317 318 318 319 319 319 319 320 320 320 320 320 320 321 321 322 323 324 324 325 326 326 326 326 327 327 327 327 327 326 325 325 326 330 332 332 330 329 329 329 329 329 329 329 328 328 328 327 326 326 327 328 327 327 327
294 295 295 295 295 295 295 296 296 296 297 297 298 298 299 300 301 302 304 305 306 307 308 310 312 313 313 314 314 315 315 316 317 318 318 319 319 319 319 320 320 320 320 320 321 321 321 322 323 324 324 325 325 326 326 326 327 327 327 326 326 325 325 326 328 330 330 330 329 330 329 329 329 329 329 329 328 328 326 325 325 325 327 328 328 327
294 294 294 294 294 294 294 295 295 295 296 296 297 297 298 298 299 301 302 304 305 306 307 309 310 311 313 313 314 314 314 315 316 316 317 318 318 319 319 319 320 320 320 320 320 321 321 322 322 323 324 324 325 325 326 326 326 326 326 326 326 326 325 326 328 328 326 328 329 330 329 329 330 330 329 329 328 328 326 325 325 325 326 327 328 328
293 293 293 293 294 294 294 294 294 295 295 295 296 296 297 297 298 299 301 303 304 306 308 309 310 311 312 313 314 314 314 315 315 316 317 317 318 318 318 319 320 320 320 320 320 320 321 321 322 323 323 324 324 325 326 326 326 326 326 326 326 326 326 327 327 326 325 327 329 330 329 329 330 330 329 328 328 328 326 325 325 325 326 327 328 328
293 293 293 293 293 293 293 294 294 294 294 295 295 296 296 297 297 298 300 301 303 305 307 309 310 311 312 313 314 314 315 315 315 316 316 317 317 317 318 319 319 319 320 320 320 320 320 321 321 322 323 323 324 324 325 326 326 325 325 325 325 326 326 327 327 325 325 327 328 327 326 327 329 330 329 327 327 328 327 326 326 326 327 328 328 328
293 293 293 293 293 293 293 293 293 294 294 294 295 295 296 296 297 297 299 300 301 303 304 306 308 309 310 311 312 314 314 314 315 315 316 316 316 317 317 318 319 319 320 320 320 320 320 320 321 321 322 322 323 324 325 325 325 325 325 325 325 325 326 327 326 325 326 327 326 323 321 324 327 329 328 325 325 327 327 327 326 327 327 328 328 328
292 292 293 293 293 293 293 293 293 293 294 294 294 295 295 296 296 297 298 298 300 300 302 303 305 306 306 307 309 311 313 313 314 315 316 316 316 317 317 318 318 319 319 320 320 320 320 320 321 321 321 322 322 323 324 325 325 325 325 325 325 325 326 327 326 325 325 325 324 321 321 322 325 328 328 324 323 325 327 327 327 327 328 328 328 328
292 292 293 293 293 293 293 293 293 293 293 294 294 294 295 295 296 296 297 298 299 300 301 302 304 306 305 306 306 308 310 313 314 315 315 316 316 317 317 317 318 319 319 320 320 320 321 321 321 321 321 321 322 323 324 324 324 324 324 324 324 324 325 327 326 325 325 324 322 320 321 322 325 328 327 324 322 324 327 328 328 328 328 328 328 328
291 292 292 292 293 293 293 293 293 293 293 293 294 294 294 295 296 296 297 298 299 300 301 303 304 306 307 306 306 307 309 311 312 313 314 316 317 317 317 317 318 318 319 319 320 320 320 321 321 321 321 321 322 322 323 323 323 323 323 323 323 323 324 325 324 324 324 322 320 320 321 322 326 328 325 323 322 325 328 329 329 329 329 328 328 328
290 290 291 291 292 292 292 292 293 293 293 293 293 294 294 295 295 296 296 297 298 299 301 302 304 305 306 307 307 308 309 310 310 311 312 314 316 316 317 317 317 317 318 319 319 320 320 320 321 321 321 321 322 322 323 323 322 321 322 323 322 322 322 323 323 323 323 321 320 319 320 322 326 327 324 322 323 325 329 329 329 329 329 329 328 328
290 290 290 291 291 291 291 292 292 292 292 293 293 294 294 295 295 296 296 297 297 298 299 300 301 302 302 303 304 305 307 309 309 310 311 313 314 315 316 316 316 316 318 319 320 320 320 320 320 321 321 321 322 322 323 322 320 319 320 321 322 322 322 322 322 322 321 320 319 319 320 322 325 326 323 322 323 326 329 329 329 329 329 329 328 328
290 290 290 290 291 291 291 291 291 292 292 292 293 293 294 294 295 295 296 296 297 297 298 298 299 299 299 300 300 302 303 306 308 309 310 312 313 314 315 316 316 316 317 318 319 320 320 320 321 321 321 321 322 323 323 321 319 318 318 320 322 322 321 321 321 321 320 319 319 319 320 323 325 324 322 321 322 324 327 329 329 329 328 328 328 327
290 290 290 290 290 290 291 291 291 291 291 292 292 293 293 293 294 294 295 295 296 296 297 297 297 297 297 298 298 299 300 302 305 307 309 311 312 313 314 315 316 316 316 317 318 319 320 320 321 321 321 322 322 322 322 320 319 317 317 319 321 321 320 320 320 319 318 318 318 319 320 323 325 324 322 321 322 323 325 328 329 329 328 328 328 327
289 289 289 289 289 290 290 290 291 291 291 291 292 292 292 293 293 293 294 294 295 295 296 296 296 297 297 297 297 298 299 300 302 304 307 309 310 311 312 314 315 315 316 317 318 319 320 320 320 321 321 321 321 321 321 320 319 317 317 318 320 321 320 319 318 318 318 318 318 319 321 323 324 323 322 321 321 323 325 328 329 329 328 328 327 327
289 289 289 289 289 290 290 290 290 290 291 291 292 292 292 293 293 293 294 294 294 295 295 296 296 296 296 297 297 298 298 299 301 302 304 307 308 309 310 312 314 315 315 317 318 319 320 320 320 320 320 321 321 321 321 321 319 318 317 318 320 321 320 319 318 318 318 318 319 320 321 323 324 323 322 321 321 322 324 327 329 329 328 328 327 326
290 290 290 290 290 290 290 290 291 291 291 291 292 292 292 293 293 294 294 294 295 295 295 296 296 297 297 297 297 298 298 299 300 301 303 305 306 307 309 311 313 314 315 316 317 318 319 319 319 320 320 321 321 322 322 321 320 319 318 319 320 321 320 319 318 318 318 319 319 320 322 324 324 323 322 321 321 322 324 326 328 328 328 327 326 326
289 290 290 291 291 291 291 291 292 292 292 292 292 293 293 294 294 295 295 296 296 296 296 297 297 297 297 297 297 298 298 298 299 300 302 304 305 307 308 310 311 313 315 316 317 317 318 319 319 319 320 320 320 321 322 321 321 320 319 319 320 321 321 320 319 318 318 319 319 321 322 324 324 323 322 321 321 322 324 327 328 328 327 326 326 325
289 290 290 290 291 291 291 292 292 292 293 293 293 293 294 294 295 295 296 296 296 297 297 297 298 298 298 298 297 297 297 297 298 299 300 303 305 307 307 309 311 313 314 315 316 317 318 318 319 319 320 320 320 320 321 321 321 320 319 319 319 319 320 320 320 319 319 319 320 321 322 323 323 322 322 322 321 321 323 327 329 328 326 325 324 323
289 289 289 290 290 290 291 291 292 292 292 293 293 293 294 294 294 295 296 296 296 296 297 297 298 298 298 298 297 297 297 297 297 298 299 302 305 307 307 309 310 312 314 315 316 317 317 318 319 319 319 319 319 319 320 321 321 320 319 318 317 317 318 319 320 319 319 319 320 321 321 321 321 322 322 322 322 321 322 325 327 327 325 323 321 319
288 288 289 289 290 290 291 291 291 292 292 292 293 293 293 294 294 295 295 295 295 296 297 297 297 298 298 298 297 297 297 297 297 297 298 302 304 306 307 309 311 312 314 314 315 315 316 317 318 318 318 319 319 319 319 320 320 320 319 318 316 316 316 318 319 319 319 319 320 321 321 321 321 322 322 322 322 321 321 323 324 324 323 320 318 316
287 288 288 289 289 289 290 291 291 291 292 292 292 293 293 294 294 294 295 295 295 295 296 296 297 297 297 298 298 298 297 297 297 297 298 301 303 305 306 309 311 312 313 314 314 314 314 314 316 318 318 318 318 319 319 319 319 319 319 318 317 316 317 318 318 319 319 320 320 321 321 322 322 322 322 322 321 321 321 321 322 321 320 318 316 315
288 288 288 289 289 289 290 291 291 292 292 292 293 293 294 294 294 294 294 295 295 295 295 296 296 297 297 298 298 298 297 297 297 297 298 301 303 304 306 308 310 312 313 314 314 313 311 310 312 316 317 317 318 318 319 319 318 318 318 318 318 318 318 319 319 319 319 320 320 321 321 321 322 322 321 321 320 320 320 320 320 319 318 316 315 314
287 288 288 288 289 290 290 291 292 292 293 293 293 294 294 294 294 295 295 295 295 295 295 295 296 296 297 297 298 298 297 297 297 297 298 301 303 305 306 308 310 312 313 314 314 313 312 310 310 312 315 316 316 318 319 319 318 318 318 318 318 318 318 318 319 319 319 320 320 320 321 321 321 321 320 320 319 319 319 320 319 318 316 315 314 314
286 287 287 288 288 289 290 291 291 292 292 293 293 294 294 294 295 295 295 295 295 295 295 295 295 296 296 297 297 298 297 297 297 297 298 301 303 305 307 309 310 311 312 313 314 315 314 312 309 309 312 314 316 317 318 319 319 318 318 318 318 318 318 318 318 318 319 319 319 320 320 320 320 320 319 318 318 318 318 319 318 318 316 314 313 313
286 286 286 287 287 288 288 289 290 290 291 292 292 293 293 294 294 295 295 295 295 295 295 295 296 296 296 297 297 297 297 297 297 297 298 300 302 305 307 308 310 311 312 313 313 314 315 312 309 308 309 311 314 316 318 318 319 319 318 318 318 318 318 318 317 317 318 318 318 318 318 319 319 318 318 318 317 317 317 317 318 317 316 314 313 313
285 286 286 287 287 288 288 289 289 290 290 291 291 291 292 292 293 293 294 295 295 296 296 296 296 296 296 297 297 297 297 297 297 297 298 299 301 304 306 308 310 311 312 313 313 314 315 312 310 309 310 310 311 314 316 318 318 318 318 318 318 318 318 317 317 317 317 317 317 317 317 317 317 317 317 317 317 316 316 316 316 316 315 315 314 313
285 285 286 286 287 288 288 289 289 290 290 290 290 291 291 291 292 292 293 294 294 295 296 296 296 297 297 297 297 297 297 297 297 297 298 299 301 303 305 307 309 311 311 312 313 314 314 311 310 311 311 310 310 312 314 316 317 318 318 318 318 318 318 317 317 316 316 316 316 316 316 315 315 315 316 316 316 316 315 315 316 315 315 314 314 314
284 285 285 286 287 287 288 288 289 289 289 290 290 290 290 291 291 291 292 292 293 294 295 296 296 297 297 297 297 297 297 297 297 298 298 299 301 303 305 307 309 310 311 312 313 314 313 310 310 310 311 311 311 311 311 314 316 317 317 318 318 318 317 317 317 317 316 316 316 316 315 315 315 315 315 315 315 315 315 315 315 315 314 314 314 314
284 284 285 285 286 287 287 288 288 289 289 289 290 290 290 290 291 291 291 292 292 293 294 294 295 296 296 297 297 297 297 297 297 298 298 300 301 303 305 307 309 310 311 312 313 314 313 311 311 311 311 312 312 311 311 312 314 315 316 316 317 317 317 317 317 317 316 316 315 315 315 315 314 314 314 314 314 313 313 313 313 313 314 314 314 314
283 284 284 285 285 286 286 287 288 288 288 289 289 289 290 290 290 291 291 291 292 292 293 293 294 295 295 296 297 297 297 298 298 298 298 300 301 303 305 306 308 310 311 312 313 313 313 312 311 311 311 312 311 311 311 312 313 314 314 314 315 315 316 316 316 316 316 315 314 314 314 314 314 314 313 313 312 312 311 311 311 311 312 311 311 311
283 283 284 284 285 285 286 286 287 287 288 288 289 289 289 290 290 290 291 291 291 292 292 293 293 294 294 295 295 296 297 297 298 298 299 299 300 302 305 306 308 310 311 312 312 313 313 312 312 311 312 312 311 310 310 311 312 313 313 312 313 313 313 315 315 315 314 314 313 313 312 313 313 313 313 312 312 311 311 310 310 310 310 309 309 308
283 283 283 284 284 285 285 286 286 287 287 288 288 289 289 290 290 290 291 291 292 292 292 293 293 294 294 294 295 295 296 297 297 298 299 299 300 301 304 306 308 310 311 311 312 312 313 313 313 312 312 312 312 311 310 311 312 312 312 313 312 312 312 312 313 313 313 312 312 312 311 311 312 312 312 312 311 311 310 310 309 308 308 308 307 306
283 283 283 284 284 285 285 285 286 286 287 288 288 289 289 289 290 290 290 291 292 292 293 294 294 294 295 295 295 295 296 296 297 298 299 299 300 301 303 305 308 309 310 311 312 312 313 313 312 312 312 312 311 310 310 311 311 312 312 312 311 310 310 311 312 312 312 311 311 311 310 310 310 311 311 311 310 310 310 309 309 308 307 307 307 306
283 283 283 284 284 284 285 285 286 286 287 288 288 289 289 289 290 290 290 291 291 292 292 294 294 295 296 296 296 296 296 296 297 298 299 300 301 301 303 305 307 309 310 311 312 312 313 313 312 312 312 312 311 311 310 310 310 311 312 312 311 309 309 309 310 311 311 311 310 310 310 310 310 310 310 310 309 309 308 308 308 307 307 306 306 306
283 283 283 284 284 284 285 286 286 287 287 288 288 289 289 289 290 290 290 291 291 291 292 293 294 296 297 298 298 298 298 298 298 299 300 301 301 302 303 304 306 309 310 311 312 312 312 312 312 312 312 311 311 311 310 310 310 310 311 311 310 310 310 309 309 309 310 310 310 309 309 309 309 309 308 308 308 307 307 306 306 306 306 306 306 305
282 283 283 284 284 285 285 286 286 287 287 288 288 289 289 289 290 290 290 291 291 291 292 292 294 295 297 299 300 300 301 301 301 302 302 303 303 303 303 305 307 309 310 311 312 312 312 312 311 311 311 311 311 310 310 310 310 310 310 310 310 310 310 309 309 308 308 308 308 309 309 309 308 307 306 306 305 305 305 305 304 304 304 304 304 304
283 283 284 284 284 285 285 286 286 287 287 288 288 289 289 290 290 290 290 291 291 292 292 292 293 295 297 299 301 302 304 304 305 305 305 305 305 305 305 306 307 309 310 311 312 312 312 312 311 310 310 310 310 310 310 310 310 309 309 309 309 309 309 308 308 308 308 308 307 307 307 308 307 306 305 304 303 303 303 303 303 303 303 303 303 303
283 283 284 284 284 285 285 286 286 287 287 288 289 289 289 290 290 290 291 291 291 292 292 293 294 295 296 298 300 303 306 306 307 307 307 306 306 306 306 307 308 309 310 311 312 312 312 312 311 310 310 309 309 309 309 309 309 309 308 308 308 308 307 307 307 307 307 307 306 306 306 306 306 304 303 302 302 301 302 302 302 302 303 303 303 303
283 284 284 284 284 285 285 286 287 287 288 289 289 289 290 290 290 290 291 291 292 292 293 294 294 295 297 298 300 303 306 307 308 307 307 307 307 307 307 308 309 310 311 312 312 312 312 312 311 311 310 310 309 309 309 309 309 309 308 308 307 307 306 306 306 306 307 306 306 305 305 305 305 303 302 301 300 300 300 300 301 301 301 302 302 302
283 284 284 284 285 285 286 287 287 288 289 289 289 289 289 290 290 290 291 291 292 292 293 294 295 297 299 300 302 304 307 308 308 308 308 307 307 308 308 309 309 310 311 311 310 310 310 310 310 310 310 310 310 309 309 308 308 308 308 307 307 307 306 306 306 306 305 305 304 305 305 305 305 303 302 300 299 298 298 298 299 300 300 301 301 301
283 284 284 285 285 286 287 287 288 288 289 289 289 289 289 289 290 290 291 291 292 293 294 295 296 298 301 302 304 306 307 308 308 308 308 308 308 308 309 309 309 309 308 307 307 307 307 307 307 307 308 309 310 309 309 308 308 307 307 307 307 307 306 305 305 305 304 304 303 304 304 305 304 303 302 300 298 297 297 297 297 298 299 300 300 300
284 284 285 285 286 287 287 288 288 288 288 289 289 289 289 289 289 290 290 291 292 293 294 295 297 299 302 304 306 307 308 308 308 308 308 308 308 308 308 308 308 307 306 305 305 305 305 304 303 303 304 307 308 309 309 308 307 307 306 306 306 306 305 304 304 304 303 303 303 303 303 303 303 302 301 300 298 297 296 295 295 296 297 298 299 299
Wind_Speed
22 23 25 26 26 27 27 28 28 28 29 28 28 28 28 30 32 33 35 37 38 39 41 42 43 43 44 46 47 48 49 49 50 50 50 50 50 50 51 52 52 52 53 54 56 58 60 61 63 64 64 62 61 59 57 55 54 54 55 56 56 57 57 56 53 49 46 44 43 43 44 43 43 42 42 41 40 39 37 36 36 37 38 38 39 39
27 27 27 27 27 28 29 29 29 28 28 28 28 29 29 30 31 31 32 33 35 36 37 38 39 41 44 46 48 49 50 50 51 51 50 50 49 49 50 51 52 52 52 53 54 56 58 60 61 63 63 62 62 60 59 57 54 53 54 55 57 57 56 55 52 49 48 46 45 45 45 45 45 44 43 42 40 39 38 37 37 38 40 41 41 41
27 27 28 28 27 27 28 29 29 29 29 29 29 29 30 30 30 31 31 32 33 34 34 34 36 38 40 43 47 49 51 52 52 52 52 51 50 49 49 50 52 53 53 53 53 54 56 58 59 61 61 62 62 62 61 58 55 52 53 55 57 57 56 54 52 50 49 48 48 48 47 47 46 45 44 42 41 40 39 38 38 39 41 43 43 42
27 27 29 28 27 27 28 28 28 29 29 29 29 30 31 31 30 30 31 31 32 33 34 36 36 37 37 39 42 46 49 51 52 53 53 52 51 50 49 50 51 52 53 53 53 54 55 57 58 59 59 61 63 64 63 60 56 53 53 55 57 58 57 55 52 50 51 52 52 51 49 48 47 47 46 44 42 40 40 39 39 41 43 43 42 42
28 27 27 27 27 28 28 28 28 29 29 30 30 31 31 31 30 31 32 33 33 33 34 36 37 38 37 38 39 41 44 48 50 52 52 52 52 51 50 50 50 51 52 53 53 54 55 56 57 57 58 60 63 64 63 61 58 55 54 54 56 58 59 57 53 51 52 54 54 53 51 50 49 48 47 46 44 42 41 40 41 43 44 43 41 40
28 27 27 26 27 28 27 28 28 28 28 29 30 31 31 31 31 32 32 33 33 33 33 34 36 37 38 39 39 39 41 44 47 49 51 52 52 52 51 51 50 50 51 52 53 53 54 55 56 56 57 60 62 63 62 61 59 57 55 54 55 57 59 58 55 53 54 56 56 55 53 51 50 49 48 47 45 44 44 43 43 44 44 42 40 39
28 28 27 27 28 28 28 28 28 28 27 28 29 29 30 30 31 32 32 32 32 33 33 33 35 36 37 39 40 40 40 42 44 46 48 50 52 52 52 51 51 51 51 51 52 53 53 55 55 56 57 59 61 62 62 61 59 58 56 55 55 56 58 58 56 54 54 57 58 57 55 52 50 49 48 47 46 45 45 45 45 45 44 41 39 39
28 29 28 28 28 28 28 28 28 27 27 27 27 28 29 29 29 30 31 32 32 32 32 32 33 35 35 38 40 40 40 40 41 42 44 47 49 50 51 51 51 51 51 51 51 52 53 54 55 56 57 58 60 61 61 60 59 58 57 56 55 55 56 57 57 56 55 57 59 59 56 53 51 49 48 46 45 44 45 45 45 45 44 41 40 38
27 28 29 28 27 27 27 28 28 27 26 26 26 26 27 28 28 29 30 31 30 30 29 29 31 32 33 35 38 39 40 40 39 39 40 42 44 46 48 49 50 50 51 51 51 52 52 53 54 55 56 58 60 61 61 60 59 57 57 56 56 56 55 56 57 57 56 58 60 59 57 54 51 49 48 46 45 45 45 45 45 44 43 42 40 38
25 26 27 27 27 26 26 27 28 27 26 25 26 26 27 27 28 28 29 30 30 29 28 28 29 30 31 33 34 35 37 38 40 41 41 42 42 43 45 46 47 48 49 50 51 52 52 53 53 54 56 57 59 60 60 60 58 57 56 57 57 57 56 56 56 58 58 59 60 59 57 54 52 50 49 47 46 46 47 46 45 43 43 42 41 39
25 25 26 27 27 27 26 27 27 27 27 26 27 27 28 28 27 26 26 27 29 30 30 28 28 29 30 31 32 32 34 35 37 39 42 44 45 45 45 45 45 46 48 49 51 52 53 53 53 54 55 57 58 59 60 59 58 57 56 57 58 59 58 57 57 58 58 59 60 59 56 54 52 51 49 48 48 48 49 48 45 43 43 44 43 40
23 24 24 25 26 26 27 27 28 27 26 25 24 24 26 26 26 25 24 25 26 28 29 29 29 29 29 31 31 32 33 33 34 35 37 40 43 44 45 44 44 45 47 48 50 52 53 53 54 54 55 57 58 59 59 59 58 57 56 57 59 60 60 60 59 58 57 59 59 57 54 52 51 51 51 50 51 51 51 49 47 45 44 45 45 42
23 23 24 25 25 25 26 26 26 25 24 23 20 19 21 23 24 24 25 25 26 27 27 27 27 28 29 30 31 32 32 32 32 32 33 34 37 39 39 39 40 42 43 44 46 49 51 53 54 55 56 57 58 59 59 59 57 56 56 57 59 60 62 62 60 58 57 58 57 54 51 49 50 51 52 53 54 54 53 51 48 46 47 48 47 43
22 22 23 23 23 24 25 25 24 23 23 23 22 22 24 24 25 25 25 26 27 27 26 24 25 26 27 28 29 30 30 31 31 31 31 33 35 36 35 35 36 37 39 40 42 45 48 50 52 54 57 58 59 59 59 58 57 56 57 58 60 61 63 64 62 59 58 58 56 53 49 48 49 51 54 54 56 56 55 52 50 48 48 49 48 44
22 20 18 18 20 23 24 24 24 24 25 25 25 25 26 26 25 25 24 24 26 27 26 26 27 27 27 28 29 29 30 30 29 28 29 32 34 35 33 34 35 35 36 37 39 42 45 47 48 49 53 56 58 59 59 58 57 56 57 59 61 63 65 65 64 62 59 58 55 52 49 47 49 52 55 55 56 57 56 53 51 49 49 50 48 45
23 20 17 16 19 23 25 26 26 26 27 27 27 26 25 25 25 24 23 23 24 25 24 23 22 22 25 29 30 30 30 29 28 27 27 30 32 33 32 33 33 33 34 36 37 39 41 44 45 46 48 53 56 58 58 57 56 55 57 59 61 63 65 66 65 63 61 58 55 52 49 48 50 53 55 55 56 57 56 54 51 50 50 49 48 44
23 21 19 19 20 23 26 27 27 27 28 28 27 26 25 25 24 24 24 24 23 22 21 17 11 8 13 24 29 29 28 27 26 26 26 27 31 34 32 33 33 33 32 34 36 38 40 42 43 44 45 49 53 56 57 56 54 53 55 57 60 62 64 65 65 64 62 59 55 52 49 49 51 54 55 55 55 56 56 54 51 50 50 49 47 44
23 23 22 21 22 24 27 27 27 28 28 27 26 26 26 26 25 25 24 24 22 20 18 16 12 7 6 8 18 25 24 25 25 25 25 25 28 31 33 34 34 33 32 34 36 38 39 40 42 43 44 47 51 54 55 54 51 49 51 54 56 58 61 61 62 62 61 59 55 52 50 50 52 54 54 54 55 56 56 54 52 51 50 49 47 44
25 27 26 24 25 26 27 27 27 27 26 26 26 25 25 26 25 25 25 24 22 21 20 16 13 12 12 15 20 24 23 24 25 24 23 23 24 27 32 34 35 35 34 34 35 36 38 39 41 43 45 48 51 53 54 52 48 45 46 50 53 55 57 59 59 59 59 57 55 52 50 51 53 54 54 54 56 57 57 55 53 51 50 49 47 45
28 29 29 28 28 28 29 30 30 29 28 27 26 25 24 25 25 25 25 25 24 24 24 20 19 20 22 24 27 28 27 26 24 22 21 21 22 25 30 33 35 34 32 32 33 35 37 39 40 43 45 49 52 53 54 50 46 42 43 47 50 53 55 57 58 57 58 57 55 53 51 52 54 55 54 55 57 58 58 55 53 52 51 49 48 45
30 31 32 32 29 27 28 30 31 31 30 28 26 25 25 26 26 26 26 25 25 25 25 22 22 24 26 28 29 30 30 29 26 21 19 19 21 24 27 30 33 34 32 32 32 34 36 38 40 41 45 48 50 52 53 49 45 41 41 45 48 51 54 56 57 57 58 57 55 52 51 52 54 55 55 56 57 58 57 55 53 52 51 50 48 46
33 35 37 36 33 31 32 33 34 33 32 29 28 28 28 28 27 27 27 27 26 25 25 24 26 28 29 30 32 33 32 31 28 25 19 14 17 23 25 27 30 32 32 32 31 32 34 36 38 40 44 46 48 49 49 47 44 42 42 44 47 50 52 54 56 57 58 57 54 51 51 53 54 55 56 57 58 58 57 54 52 51 50 50 48 46
36 38 38 38 37 36 35 36 36 35 33 31 31 32 32 30 30 30 30 29 28 28 28 30 31 32 33 33 35 35 34 33 32 29 24 14 16 22 24 25 27 29 31 32 30 30 31 34 36 38 42 45 46 46 46 45 44 43 43 44 46 49 52 54 55 57 56 55 52 51 52 53 55 56 57 58 58 58 56 53 51 50 50 50 49 47
37 38 37 38 38 37 36 36 36 34 34 33 32 32 33 33 33 33 33 33 32 32 31 32 32 33 34 36 36 35 35 33 32 29 26 18 19 25 27 25 25 27 30 32 31 30 30 32 34 36 39 42 44 45 46 46 45 44 43 44 47 50 54 54 55 56 56 54 52 52 53 55 56 57 57 58 58 57 56 53 51 50 50 50 49 47
36 36 36 36 37 38 38 37 37 35 34 33 32 32 31 32 32 33 33 33 33 33 32 29 27 27 30 32 33 33 34 32 29 28 26 23 25 29 31 27 24 25 27 29 30 30 29 30 32 33 36 39 43 46 47 48 47 46 45 45 48 51 55 56 56 57 56 55 54 54 55 56 57 57 58 58 58 57 56 54 52 52 52 51 50 48
39 39 39 39 40 41 42 42 42 41 39 37 34 33 31 30 30 30 29 29 30 30 28 22 18 19 25 27 28 29 31 30 29 28 27 24 24 27 32 30 26 24 26 28 29 30 30 29 30 31 34 37 42 46 48 49 49 48 47 47 48 51 54 57 58 58 57 57 56 56 57 58 58 58 58 59 59 58 56 55 54 54 54 53 51 49
43 44 45 46 46 47 47 47 47 47 46 45 42 39 36 32 29 27 26 27 28 27 22 13 11 14 17 20 23 27 31 30 28 28 28 26 23 24 29 30 27 25 26 28 29 30 29 28 29 31 33 36 41 45 48 50 51 50 49 48 48 49 52 57 60 60 59 58 57 57 58 59 58 57 57 58 59 59 57 57 56 55 54 53 51 49
41 43 45 46 47 48 49 50 50 50 50 50 49 47 44 38 32 28 26 29 30 26 21 14 11 11 10 10 18 28 31 30 29 29 28 26 21 21 28 30 27 24 24 26 27 29 29 28 29 30 32 34 38 44 49 52 53 52 51 50 48 48 51 57 60 62 60 59 58 58 58 58 56 55 55 58 60 60 58 57 57 56 54 52 50 48
38 39 41 42 44 45 47 48 49 49 50 50 50 49 47 42 37 33 31 32 30 26 20 16 13 12 11 14 21 27 28 30 31 30 27 24 21 22 29 29 26 24 24 21 22 25 27 28 29 29 30 31 34 40 47 51 53 54 53 51 49 49 52 57 61 62 61 60 58 57 56 55 54 53 55 59 61 61 59 57 57 55 53 51 49 48
37 37 38 39 41 42 43 44 45 46 48 49 49 49 47 44 41 38 36 35 32 27 21 19 19 18 15 15 15 16 20 29 32 31 27 22 19 22 29 27 24 23 21 16 13 12 15 21 26 29 29 29 30 34 42 47 51 53 53 52 51 51 54 59 62 62 61 60 58 56 54 53 52 53 56 60 62 61 59 58 56 55 53 50 48 48
37 37 37 37 38 38 38 38 39 41 43 44 45 45 44 43 41 40 39 38 35 30 26 25 25 25 21 11 7 7 9 25 31 29 26 23 21 24 28 26 23 22 21 18 10 3 4 7 16 26 31 29 29 31 36 43 47 49 49 50 51 54 57 60 62 61 61 60 59 56 54 53 53 55 58 61 62 61 59 58 56 54 52 49 48 47
36 35 35 35 34 33 33 33 34 35 35 36 37 37 38 38 38 38 38 37 36 34 33 31 30 29 27 17 12 11 12 26 31 28 26 24 24 27 28 26 24 22 23 25 19 9 4 1 6 17 28 29 29 29 33 40 44 45 45 46 47 50 56 59 60 60 60 60 59 57 55 55 56 57 59 61 61 60 59 58 56 54 51 49 47 47
35 33 33 34 34 32 31 30 31 33 32 32 32 32 32 33 34 35 35 35 36 36 36 35 32 30 29 25 23 23 27 33 34 31 28 25 23 24 26 26 24 22 22 25 26 21 11 4 5 11 21 27 29 29 32 37 41 43 43 42 42 44 49 54 57 57 58 58 58 57 56 57 58 58 59 59 59 58 58 57 56 54 52 50 49 48
33 32 32 33 33 32 31 30 31 32 32 32 32 32 30 31 32 33 34 35 36 36 36 36 34 31 28 25 24 27 34 38 38 34 30 28 25 24 25 24 23 21 19 20 23 24 19 11 8 9 12 21 26 28 31 35 40 43 43 42 40 41 44 49 51 52 53 54 54 54 55 57 58 58 58 58 57 56 56 56 56 55 54 53 51 49
30 30 30 30 30 29 29 29 30 30 30 31 32 32 31 32 33 34 34 35 35 35 36 37 37 35 33 28 22 23 31 37 37 34 32 31 30 28 25 24 22 21 18 17 17 15 12 9 10 10 8 12 19 24 28 32 38 42 42 42 41 40 42 45 47 47 47 47 48 49 52 54 55 56 56 57 56 55 55 56 57 56 56 56 54 51
28 28 28 28 27 27 27 28 28 28 29 30 30 31 31 32 32 33 33 34 34 35 35 36 38 38 38 36 32 31 35 37 36 33 32 33 33 31 28 26 25 23 20 18 16 12 7 5 9 12 11 7 9 15 22 28 33 37 39 40 40 40 41 44 46 45 43 43 44 46 48 50 52 53 53 55 55 55 55 56 57 57 57 57 56 55
26 27 27 26 26 25 26 26 27 27 28 28 29 29 30 31 31 32 34 34 35 35 36 36 38 39 40 39 39 40 41 39 35 33 32 33 34 33 31 30 29 26 23 21 19 15 10 5 6 8 8 6 5 8 14 20 26 31 34 36 38 38 39 42 44 43 41 41 42 44 45 48 49 50 50 53 54 55 55 57 58 58 58 58 57 56
25 25 26 26 25 25 25 26 26 27 28 28 28 29 30 30 32 33 33 34 36 36 37 37 38 39 40 42 42 42 42 40 38 36 35 34 35 35 35 33 31 28 26 26 25 20 13 7 6 6 6 6 8 10 14 17 20 22 26 31 34 36 37 39 41 41 41 41 42 44 46 47 48 48 48 50 51 52 53 54 56 57 58 57 56 56
24 25 26 26 26 26 26 26 27 28 28 29 29 30 30 31 32 33 34 35 36 37 38 39 39 39 41 42 43 43 42 42 42 41 40 40 39 38 37 35 32 30 29 30 30 27 19 11 8 6 6 5 6 10 16 18 18 20 22 25 28 31 34 37 40 41 41 41 41 42 44 46 48 47 47 47 49 49 49 49 50 52 53 53 51 50
25 25 26 27 28 28 28 29 30 30 30 31 31 32 31 31 31 32 33 34 36 37 38 39 39 40 42 43 43 44 44 45 44 44 44 45 45 42 38 36 33 31 29 31 32 30 25 19 15 13 12 9 7 9 14 17 19 21 21 19 18 22 30 35 39 40 40 40 40 40 41 44 46 46 46 47 47 47 47 46 45 46 47 47 45 43
26 26 27 28 29 30 30 31 31 32 32 31 31 30 30 30 29 29 30 31 32 34 34 36 37 38 40 41 42 43 44 45 46 46 46 48 50 49 44 39 35 32 30 30 30 29 27 23 20 18 18 16 15 14 16 18 21 23 24 20 18 20 26 33 37 39 39 39 39 39 40 41 43 44 45 46 47 48 48 47 45 44 45 46 46 44
28 28 29 30 30 30 31 32 33 33 33 32 31 30 30 29 28 28 29 28 29 29 29 30 31 32 34 37 40 42 43 44 46 48 49 51 52 51 49 44 39 33 31 30 28 27 25 24 22 20 19 19 16 14 14 19 22 25 25 24 22 22 24 29 34 38 38 37 37 38 39 39 40 41 43 44 46 47 48 48 48 47 46 46 47 47
28 29 30 31 31 32 33 33 33 32 31 30 30 30 31 30 29 28 28 28 28 29 29 29 28 27 28 31 34 38 41 44 45 47 49 51 53 52 50 48 44 38 32 30 27 23 23 23 23 22 22 22 21 17 14 17 20 22 25 26 25 21 14 19 28 35 36 36 37 37 38 38 38 39 41 43 44 45 46 47 48 49 49 49 47 46
30 31 31 31 31 31 31 30 30 29 29 28 27 28 30 30 30 29 28 28 28 29 29 28 27 26 25 25 28 32 36 40 43 46 48 50 52 53 51 51 48 42 34 31 27 23 21 21 21 22 24 25 24 22 20 19 20 21 23 26 28 25 20 21 27 32 33 35 36 37 37 38 39 39 40 41 42 43 44 45 46 47 48 49 48 46
29 30 30 30 30 29 28 29 29 29 29 28 27 28 29 29 29 28 27 27 28 28 28 28 26 22 18 21 24 27 31 33 37 41 45 48 52 54 53 53 50 43 36 32 29 26 22 19 19 21 24 25 25 24 22 21 21 22 22 25 27 28 28 29 31 33 31 32 33 35 37 40 40 39 37 37 38 40 43 44 44 44 45 46 46 45
27 28 29 30 29 29 30 30 30 29 28 27 28 28 28 28 28 28 28 27 27 27 28 28 24 17 13 16 20 22 22 25 29 33 36 42 47 51 53 54 51 44 35 33 32 30 28 25 23 22 22 22 22 24 25 25 24 22 22 23 24 24 25 28 31 33 33 31 32 34 38 41 41 38 35 34 35 38 40 42 43 43 44 44 44 44
29 29 30 30 30 30 30 30 29 28 26 26 26 27 27 26 26 25 26 27 27 26 26 26 24 19 16 17 19 18 15 16 21 25 28 32 38 44 48 50 49 44 37 34 33 33 31 31 30 28 25 19 16 17 22 26 26 25 23 23 23 22 22 25 29 32 34 33 33 36 39 40 38 35 33 33 33 34 36 38 40 42 43 43 43 43
29 30 30 30 29 29 29 29 27 26 24 24 25 25 26 25 25 25 25 26 26 25 24 23 21 19 19 22 24 22 18 16 19 22 23 26 31 36 41 43 43 40 37 35 34 32 31 32 34 34 31 25 18 15 18 23 26 26 26 26 24 22 22 24 28 31 33 34 36 40 41 39 36 33 32 31 30 29 30 33 35 38 40 41 41 42
30 29 30 29 28 27 27 27 26 24 23 23 24 25 26 25 26 25 24 25 25 24 22 21 18 15 15 19 23 26 23 21 21 21 22 24 28 31 34 36 35 33 32 31 29 28 27 28 30 32 33 30 26 22 21 22 24 26 26 27 26 25 24 25 28 31 32 34 38 42 42 39 38 38 35 30 27 25 27 29 31 34 36 38 39 40
30 29 29 28 27 27 26 26 25 24 23 24 24 25 25 25 24 24 24 24 24 23 23 22 19 16 14 16 19 21 20 19 18 19 21 23 26 28 29 30 29 27 23 20 19 20 20 18 19 23 26 27 27 27 25 24 23 24 24 25 26 26 25 26 28 32 33 35 38 40 39 38 38 40 38 32 28 25 25 26 28 31 34 36 37 39
30 29 29 28 27 27 26 26 25 24 25 25 25 25 24 23 23 22 22 22 22 22 23 24 23 19 15 15 16 17 18 17 16 17 21 24 26 27 27 27 27 23 16 10 10 11 10 7 6 7 11 18 23 25 27 26 25 23 21 22 24 25 26 26 29 33 35 36 37 37 36 35 36 36 36 33 29 25 23 23 25 28 32 35 36 37
Wind_Direction
298 299 299 299 301 301 297 296 296 294 291 288 285 282 279 276 273 270 268 265 263 261 259 258 257 257 257 257 258 258 259 259 260 259 259 258 257 255 253 252 250 248 246 244 242 242 243 243 243 244 245 246 246 245 241 238 234 230 229 228 228 228 228 227 224 220 218 217 216 214 212 209 205 202 200 203 207 209 211 216 224 229 227 222 219 220
294 295 294 294 293 292 289 289 289 288 288 287 285 283 282 279 276 274 272 270 267 264 261 258 257 256 255 256 256 257 258 259 259 260 260 259 258 256 254 252 251 250 248 246 244 243 243 244 244 244 244 245 244 243 241 237 232 228 226 226 226 226 227 226 223 218 215 215 215 213 212 210 207 203 200 202 206 210 213 217 223 227 227 223 220 220
295 294 292 291 290 288 286 285 284 283 283 283 282 281 280 278 276 274 273 272 270 268 265 262 259 257 256 255 255 256 256 257 258 258 259 259 259 257 255 253 252 251 250 249 246 245 244 244 244 244 243 242 242 241 240 237 232 227 224 224 225 226 226 225 222 217 213 213 213 213 212 211 208 204 200 201 206 212 216 219 224 227 226 222 219 220
292 292 291 292 290 287 285 285 285 284 283 282 281 281 280 278 276 273 272 270 269 268 267 265 263 261 260 257 256 255 255 256 256 257 258 258 258 258 257 255 253 252 251 250 248 246 244 244 245 244 242 240 239 239 239 237 233 229 225 224 224 225 226 225 221 216 213 212 212 212 211 211 209 205 201 200 204 211 218 222 225 226 224 219 217 218
289 289 290 292 291 289 287 287 287 286 285 283 282 281 279 277 276 274 273 271 268 266 265 264 264 263 263 261 258 256 254 254 255 255 256 257 258 258 257 256 254 253 252 252 250 248 245 245 244 244 241 238 237 238 238 237 234 230 227 225 224 225 226 225 222 216 212 211 211 211 211 210 209 206 202 200 202 209 216 222 225 225 222 217 215 217
287 288 289 290 289 288 289 288 287 286 286 284 282 280 278 277 276 275 273 271 269 266 264 262 262 262 262 262 261 259 255 254 253 254 255 256 257 257 257 256 255 254 253 252 251 249 247 245 244 243 240 237 236 236 237 237 234 231 228 225 224 223 224 224 222 218 213 211 211 211 211 210 208 206 204 201 202 206 213 219 223 223 220 215 213 216
287 287 288 288 287 286 287 286 285 284 284 283 282 281 279 277 276 274 272 271 269 267 265 263 261 260 259 260 260 260 258 255 254 253 254 255 256 257 256 256 255 254 253 252 251 250 248 247 245 243 240 236 234 234 236 236 235 232 229 226 223 222 222 223 222 219 214 211 211 211 210 209 207 206 205 202 202 206 212 218 221 222 219 213 211 215
286 286 287 286 286 286 285 283 282 281 281 281 282 282 281 279 277 275 273 272 270 267 265 263 261 259 257 257 257 257 257 256 255 253 253 254 255 256 255 255 254 253 252 251 251 250 248 246 245 243 240 237 234 233 234 235 235 233 229 226 224 222 221 221 221 219 215 212 211 210 209 207 206 205 204 202 203 206 212 217 221 222 220 214 211 214
282 284 285 284 284 285 286 284 281 280 279 279 279 280 281 281 280 278 276 274 271 267 265 263 261 260 257 256 255 255 255 255 254 253 252 252 252 253 254 253 253 252 251 250 249 248 247 245 244 242 240 237 235 233 233 235 235 233 230 227 225 223 222 220 220 220 217 213 212 210 208 206 205 204 203 202 203 207 213 217 220 222 222 218 215 216
278 280 282 282 282 281 282 282 282 281 280 279 278 278 278 278 279 279 278 275 272 270 267 264 263 262 261 259 256 254 253 253 253 252 251 251 251 251 252 251 251 250 250 249 247 246 245 244 243 242 240 237 235 234 233 234 235 234 232 229 227 225 223 221 220 219 217 214 212 210 208 205 204 203 202 202 204 209 214 217 219 221 222 221 220 220
279 279 280 282 282 280 279 279 281 282 282 281 279 277 274 272 273 275 276 275 274 272 269 266 263 262 262 261 259 256 254 253 253 252 252 251 250 250 250 250 250 249 249 249 247 245 244 242 241 240 239 237 235 234 233 234 235 236 235 232 228 226 224 222 220 218 216 214 212 210 207 205 204 203 203 203 206 211 215 217 218 219 221 222 221 221
279 280 280 281 281 281 280 279 280 281 281 280 278 276 273 270 269 270 271 273 274 274 272 269 266 263 262 262 261 259 256 254 254 253 252 251 249 248 248 248 248 248 248 248 247 246 244 242 240 239 238 237 236 234 233 234 235 236 237 235 231 227 225 223 221 219 216 214 212 210 209 208 207 206 204 204 207 212 215 215 216 217 219 220 220 219
277 278 278 279 279 279 280 280 281 280 278 276 274 274 274 274 274 273 273 273 274 275 275 274 271 268 265 262 260 258 256 254 253 253 252 251 249 247 245 245 244 245 245 245 244 243 242 241 239 238 236 236 235 235 234 234 235 236 237 236 233 229 226 223 222 220 218 215 212 212 211 211 211 210 207 206 208 212 214 214 214 215 217 218 218 217
278 278 277 277 276 276 277 277 278 277 275 274 273 273 276 278 279 278 277 276 276 276 279 280 278 276 272 267 262 258 255 254 253 253 252 251 249 246 242 241 240 240 240 239 239 240 239 238 237 236 235 235 235 235 235 234 235 236 237 236 234 231 228 225 223 220 217 213 212 212 213 214 214 213 210 208 209 211 212 212 212 213 215 216 216 215
278 278 277 275 275 274 274 274 274 274 274 274 274 275 277 278 278 278 277 277 277 278 281 281 280 279 275 271 267 263 260 258 255 253 252 252 251 247 242 240 240 239 237 235 235 236 237 235 234 233 233 233 233 234 234 234 235 236 236 236 234 231 229 226 223 219 215 211 211 212 213 215 216 215 211 210 209 209 210 211 211 212 214 215 214 214
277 276 274 274 273 272 272 272 272 273 274 274 275 276 276 276 276 276 275 276 277 279 279 280 280 278 275 272 270 267 264 261 257 254 251 253 252 248 243 242 239 235 234 232 232 233 233 232 231 230 230 230 231 232 232 233 234 235 235 234 232 230 228 226 223 218 213 210 210 210 211 215 217 216 212 211 209 208 208 209 210 212 213 213 213 213
275 273 272 272 272 271 271 271 270 270 272 274 274 274 274 273 274 274 274 274 276 277 275 275 274 274 274 273 271 268 264 259 255 253 252 252 252 250 244 243 240 235 232 229 228 229 229 229 228 228 228 229 229 230 230 230 231 233 234 233 231 228 225 223 220 216 212 209 208 208 209 214 217 217 213 211 210 208 208 209 211 211 212 213 213 212
275 273 273 272 272 272 272 271 271 271 271 272 272 273 272 272 272 272 271 272 272 272 272 272 269 267 271 273 273 271 269 263 262 261 258 254 251 250 246 244 242 238 233 231 229 228 227 227 228 228 227 227 227 227 227 227 228 230 233 233 231 227 223 219 216 214 210 208 207 207 208 214 217 216 213 212 210 208 209 210 211 211 212 212 212 212
273 272 271 271 271 271 271 270 270 270 270 271 272 273 273 272 272 271 270 270 269 270 271 272 273 273 275 275 276 279 282 278 273 269 266 260 255 252 249 247 247 246 241 234 229 226 227 226 227 227 228 228 226 225 223 223 224 228 232 234 233 230 224 220 217 213 209 207 206 206 208 214 217 217 215 212 210 209 210 210 211 211 211 211 211 211
271 269 267 267 268 269 269 268 267 267 268 269 271 273 273 273 273 271 270 269 268 268 268 270 271 272 274 275 277 281 287 289 285 277 271 266 261 256 253 251 251 250 243 238 230 224 223 223 224 225 226 226 224 222 220 219 220 225 231 235 235 231 226 222 217 212 208 206 205 205 208 214 217 217 215 213 210 209 209 210 210 210 210 210 210 211
270 269 266 266 266 267 267 266 265 265 266 268 270 271 271 272 271 270 269 268 268 268 267 266 267 268 270 272 274 277 283 290 291 287 279 273 266 260 256 253 252 251 248 243 233 223 219 218 219 221 221 220 219 217 216 216 217 221 228 234 235 232 226 220 215 211 208 206 204 205 208 214 217 217 216 213 210 208 208 208 208 209 210 210 210 211
269 269 268 267 266 265 265 266 266 265 265 265 265 265 266 267 267 267 267 268 268 267 267 266 266 268 269 271 272 273 276 281 285 287 288 282 271 266 261 256 253 252 251 246 238 228 218 214 214 215 215 214 213 213 213 214 215 218 224 230 232 230 224 218 213 210 208 206 204 206 210 214 216 216 215 214 211 208 207 207 208 209 210 210 210 211
263 264 265 265 264 263 263 264 264 264 263 261 260 260 261 261 262 264 265 266 266 266 267 267 268 269 269 269 270 270 271 271 273 278 282 280 275 273 269 263 257 253 251 246 239 229 220 212 210 211 212 212 212 213 213 214 215 217 221 226 228 227 222 217 213 211 209 207 207 209 212 215 216 215 215 214 212 209 207 207 208 210 211 211 211 212
260 260 260 261 261 260 260 261 261 261 261 259 257 256 256 257 258 260 262 263 264 265 266 267 268 268 267 267 267 267 266 265 266 268 271 271 273 274 273 268 261 257 253 247 239 230 222 215 212 211 211 211 212 213 213 214 214 215 218 222 224 224 221 218 215 212 211 210 211 212 215 216 215 215 214 214 213 211 208 207 208 210 211 212 212 212
262 260 260 259 259 259 259 260 259 259 259 257 257 256 255 255 256 257 258 259 260 261 262 262 262 263 263 264 264 264 263 262 261 261 263 266 269 270 269 266 262 259 256 249 241 232 226 222 219 215 211 211 213 214 214 214 213 213 214 217 220 222 221 219 216 214 213 213 213 215 216 216 215 214 214 214 214 212 210 207 207 209 211 212 213 213
265 264 263 262 262 262 262 261 261 260 259 257 256 256 255 255 256 256 254 252 253 255 255 254 254 255 259 260 260 260 261 260 259 258 258 262 265 267 265 263 259 257 256 250 243 236 231 226 223 218 211 211 213 215 215 214 212 211 210 212 216 220 222 221 219 216 215 214 214 215 216 216 215 214 214 214 214 212 209 207 207 208 210 211 212 212
268 267 266 265 265 264 264 263 263 262 261 260 259 257 257 258 259 257 253 252 252 253 252 249 249 253 256 256 257 258 260 260 258 256 256 258 262 264 262 259 256 253 253 250 245 239 233 226 219 213 211 210 211 213 214 213 212 210 209 210 213 218 222 222 220 218 215 215 215 215 215 214 213 213 213 214 214 212 210 207 207 208 209 209 209 208
273 271 269 267 266 265 264 264 263 263 262 261 261 260 259 259 259 257 255 255 256 256 255 252 252 254 253 251 256 259 259 258 257 255 254 256 259 260 260 258 253 248 247 248 244 238 232 227 220 215 212 210 209 209 210 211 211 210 209 209 211 216 221 222 220 217 214 214 214 215 215 213 212 212 214 214 214 212 210 208 206 206 207 205 203 201
278 276 273 271 269 267 266 265 264 263 262 261 261 260 258 257 256 256 256 257 257 257 255 254 254 255 256 259 260 260 259 257 255 254 253 255 256 258 259 257 251 244 242 244 244 241 235 230 225 221 218 215 209 205 205 208 209 208 208 209 211 215 219 220 217 214 212 212 213 214 214 213 212 213 214 213 212 212 210 208 206 204 202 200 197 194
282 279 276 274 272 269 267 265 264 263 262 261 260 258 256 254 253 253 254 255 255 254 254 254 255 255 256 259 261 259 256 255 253 251 249 250 254 257 257 255 248 240 237 239 244 244 237 229 223 221 220 218 212 205 202 204 205 206 207 209 212 215 217 217 214 212 210 210 211 212 212 212 213 213 212 211 210 210 210 208 205 201 197 193 191 188
285 282 279 276 274 272 269 265 263 262 260 259 257 255 253 251 250 250 251 252 251 250 251 253 253 253 253 251 248 248 250 254 252 248 244 245 249 253 254 253 248 240 231 231 233 238 232 223 218 217 217 217 215 209 202 201 202 203 204 206 209 211 213 213 211 210 209 209 209 210 211 212 212 212 210 209 209 208 208 206 202 197 191 187 185 184
287 285 283 280 278 276 273 269 266 264 262 259 257 254 251 249 247 246 246 246 245 246 248 249 251 251 249 245 244 247 251 254 252 248 243 244 248 251 252 251 248 242 234 231 232 234 224 184 197 205 210 212 214 210 202 199 200 201 202 203 205 207 208 209 209 208 208 208 208 209 211 212 211 210 209 208 207 206 206 204 200 193 187 183 181 181
289 287 284 282 281 278 275 272 270 268 266 264 261 258 254 251 248 246 244 242 242 242 244 245 247 247 247 246 246 248 251 252 251 248 244 246 250 254 253 250 247 243 236 234 234 234 230 210 164 180 197 204 207 205 201 199 199 199 200 201 202 204 205 206 206 206 206 206 206 208 210 211 210 208 207 206 205 204 204 202 198 192 186 182 180 180
290 287 284 282 280 277 274 270 268 267 266 264 263 261 259 256 254 251 248 246 244 242 240 240 241 242 243 244 246 247 249 250 248 246 243 245 250 255 256 253 247 239 234 233 234 234 234 219 178 162 183 196 199 200 199 198 198 198 199 199 200 201 202 203 203 203 203 202 203 204 206 206 206 205 204 204 203 202 201 199 196 192 187 183 181 179
290 287 285 283 280 277 273 270 267 265 263 262 261 260 259 258 257 256 254 252 249 246 242 240 238 238 240 241 243 246 247 248 247 244 240 241 244 250 255 254 247 239 232 229 229 232 234 214 181 165 168 185 195 201 203 199 196 196 197 199 199 199 200 200 199 199 199 198 199 199 200 200 200 200 201 201 201 200 198 196 194 192 189 186 183 180
291 288 286 284 281 278 274 271 269 266 264 262 261 259 257 257 256 255 255 254 252 250 247 243 241 239 239 239 241 244 246 248 246 243 238 237 239 243 248 250 247 240 233 228 225 223 219 193 171 168 166 167 186 200 205 199 195 194 196 197 197 198 198 198 197 196 195 195 196 196 196 196 196 196 197 198 199 198 196 194 193 191 189 187 185 184
291 290 288 285 282 279 276 273 271 269 267 265 263 260 258 256 254 254 254 253 252 251 250 247 245 243 240 239 240 242 245 247 246 243 239 237 237 239 243 246 245 240 232 228 223 218 208 173 156 166 171 170 172 183 189 187 189 192 193 193 194 195 196 196 196 195 194 194 195 195 194 194 193 193 193 195 197 196 195 194 192 191 190 188 187 187
291 290 289 287 284 281 278 276 274 272 270 267 265 262 259 256 255 253 252 252 251 250 250 249 248 246 244 242 241 242 243 244 243 242 239 238 237 238 240 243 242 238 231 227 221 213 201 173 158 167 175 178 176 173 172 172 178 184 186 189 191 192 193 194 195 195 194 194 194 194 193 192 190 189 189 190 190 190 190 190 190 189 189 188 188 188
291 290 289 288 285 283 280 277 275 274 272 269 267 264 262 259 256 254 252 251 250 249 248 248 248 247 246 245 244 243 242 242 242 241 239 238 238 239 240 242 241 237 231 227 223 217 205 183 163 164 168 167 168 170 171 173 175 177 177 180 183 188 191 192 192 192 192 192 191 190 189 188 186 185 184 184 184 184 185 185 185 185 184 183 183 183
290 289 288 287 285 283 280 278 277 276 273 271 269 266 263 260 257 255 253 252 251 250 248 247 246 246 247 246 245 244 243 242 241 240 239 238 237 238 239 240 239 235 229 227 225 221 209 191 178 174 174 170 167 171 175 179 179 176 171 171 176 182 184 186 187 188 188 188 186 184 182 181 180 180 180 181 181 182 183 183 183 182 180 178 175 173
291 290 288 288 287 284 281 279 278 276 274 271 268 265 262 259 256 254 254 251 250 249 247 245 244 244 244 244 244 243 243 242 241 239 238 237 236 236 237 238 237 232 226 223 223 219 209 195 183 178 178 176 173 173 178 183 181 177 174 176 178 178 178 179 181 182 182 182 181 180 177 175 174 175 176 178 181 182 183 182 181 180 178 176 173 170
292 290 289 289 287 285 283 282 280 277 274 271 267 264 261 257 255 254 254 253 251 249 246 243 241 240 240 240 241 241 240 240 239 238 237 236 234 234 234 235 234 231 223 217 215 212 204 193 184 180 179 176 173 174 181 183 182 180 179 178 172 167 169 174 177 178 177 177 176 175 173 171 170 171 173 175 178 181 182 182 181 179 177 176 175 174
290 290 289 288 287 285 284 282 280 276 273 269 265 262 260 257 255 253 251 251 251 250 249 247 243 240 238 238 238 238 238 238 237 236 235 234 233 231 231 232 231 228 219 211 206 203 198 193 188 184 182 178 177 177 179 180 181 182 182 177 169 161 160 170 173 174 174 174 174 172 170 169 168 169 170 173 175 178 179 180 180 179 178 177 177 177
289 289 289 288 287 286 284 282 279 277 273 269 265 262 261 258 255 252 250 249 249 249 248 247 246 245 243 240 237 236 236 235 234 233 232 231 230 229 228 228 229 225 216 206 199 195 194 193 190 187 184 180 179 179 179 180 181 182 181 176 172 171 174 172 170 170 170 172 172 171 170 168 167 166 167 169 172 174 175 176 177 178 179 179 178 178
288 289 289 289 289 288 286 284 282 279 276 271 267 265 263 260 255 251 248 248 248 247 245 244 245 246 246 244 241 237 235 233 230 229 228 227 226 226 225 225 224 221 214 204 195 190 187 187 186 184 182 181 180 180 179 179 179 179 179 176 175 175 175 171 169 169 168 169 169 170 169 167 165 162 162 164 167 170 173 174 175 176 178 178 178 179
291 291 291 291 290 289 287 285 283 280 276 272 269 267 265 261 257 253 249 247 246 246 244 242 241 242 245 245 243 239 233 228 224 222 219 219 219 220 220 220 219 217 210 202 196 192 190 187 182 177 175 176 179 180 180 178 176 176 175 174 172 170 167 167 168 169 169 168 167 167 167 165 162 159 158 160 163 167 171 174 175 176 177 178 179 179
294 294 294 293 291 290 288 286 283 280 276 273 271 269 267 263 259 254 250 247 246 245 244 241 239 239 242 245 244 241 234 227 220 214 208 207 208 209 211 212 212 211 206 199 196 195 194 190 184 178 174 173 176 178 178 176 174 173 171 169 166 162 160 162 165 168 168 168 167 166 164 162 159 158 158 159 161 164 169 173 176 177 178 179 179 180
296 295 295 293 292 290 289 287 284 280 277 276 275 274 272 267 262 257 253 250 247 245 244 241 239 238 240 242 243 241 236 229 222 214 202 197 197 198 200 202 203 202 199 196 195 195 194 190 185 181 178 177 176 176 173 172 172 172 170 167 164 160 159 161 164 166 168 168 167 166 164 162 159 158 156 155 156 160 165 170 174 177 178 179 179 180
297 296 295 294 292 290 289 288 286 284 282 282 282 281 279 274 267 261 256 252 249 246 244 242 240 237 237 239 240 239 235 227 218 208 198 191 190 190 190 191 191 189 187 189 190 188 181 179 179 181 182 180 179 176 171 170 170 169 167 166 165 162 161 160 163 165 167 167 167 167 167 166 164 162 158 154 153 156 160 166 171 175 177 179 179 180
299 298 296 295 294 292 292 291 290 289 289 288 287 286 283 279 273 265 259 254 250 248 245 243 241 238 236 237 237 235 229 221 211 200 190 185 182 181 180 179 175 171 168 169 167 162 157 157 164 172 178 180 180 176 171 167 165 165 165 166 166 164 161 160 162 165 166 166 167 167 167 166 165 163 160 157 154 154 156 161 167 172 176 178 179 179
303 301 300 299 297 296 296 296 295 294 294 293 291 290 287 284 279 272 265 258 252 248 246 243 241 239 237 236 233 228 218 209 199 189 183 179 176 174 172 169 166 161 153 145 145 147 140 128 130 151 167 175 176 176 173 167 163 162 163 166 165 163 161 161 162 164 165 166 167 167 166 164 162 161 161 158 155 153 155 158 163 169 174 176 177 178